Temperature
23 22 21 20 20 19 19 19 19 18 18 18 18 18 18 18 18 18 18 18 17 18 18 18 17 18 18 18 17 17 17 17 17 18 18 18 18 18 18 17 17 17 17
23 22 21 20 20 19 19 19 19 19 19 18 18 18 18 18 18 18 18 18 18 18 18 18 18 18 18 17 17 17 17 17 17 18 18 19 18 18 18 17 17 17 17
24 22 21 21 20 20 19 19 19 19 19 19 18 18 18 18 18 18 18 18 18 18 18 18 18 18 18 18 17 17 17 17 17 17 18 19 19 18 18 17 17 17 17
24 23 22 21 21 20 20 20 20 19 19 19 18 18 18 18 18 18 18 18 18 18 18 18 18 18 18 17 17 17 17 17 17 17 17 17 17 18 18 18 17 17 17
24 23 23 22 21 21 20 20 20 20 20 19 19 18 18 18 18 18 18 18 18 18 18 18 18 18 18 18 17 17 17 17 17 17 17 17 17 17 18 18 17 17 17
25 24 23 22 21 21 21 20 20 20 20 19 19 19 19 18 18 18 18 18 18 18 18 18 18 18 18 17 17 17 17 17 17 17 17 17 17 17 18 18 17 17 17
25 24 23 22 21 21 21 21 21 21 20 20 19 19 19 19 19 18 18 18 18 18 18 18 18 18 18 17 17 17 17 17 17 17 17 17 17 17 17 17 17 17 17
25 24 23 22 22 21 21 21 21 21 20 20 20 19 19 19 19 18 18 18 18 18 18 18 18 18 17 17 17 17 17 17 17 17 16 17 17 17 17 17 17 17 18
25 24 23 23 22 21 21 21 21 20 20 20 20 19 19 19 19 19 18 18 18 18 18 18 18 17 17 17 17 17 17 17 16 16 16 16 16 16 16 16 16 17 17
25 24 23 23 22 21 21 21 21 20 20 20 20 19 19 19 19 19 18 18 18 18 18 18 17 17 17 17 17 17 17 17 17 16 16 16 16 16 16 16 16 16 16
25 24 23 22 22 21 21 21 20 20 20 20 20 19 19 19 19 19 18 18 18 18 18 18 18 17 17 17 17 16 17 16 16 16 16 16 16 16 16 16 16 16 16
25 24 23 22 22 21 21 20 20 20 20 20 20 20 19 19 19 19 18 18 18 18 18 18 17 17 17 17 16 16 16 16 16 16 16 15 15 15 15 15 15 15 15
24 23 22 22 21 21 21 20 20 20 20 20 20 20 19 19 19 19 19 18 18 18 18 17 17 17 17 16 16 16 16 16 16 16 15 15 15 15 15 15 15 15 15
23 23 22 21 21 21 20 20 20 20 20 20 19 19 19 19 19 19 18 18 18 18 17 17 17 17 16 16 16 16 16 16 16 15 15 15 15 15 15 15 15 15 15
23 22 22 21 21 20 20 20 20 20 20 19 19 19 19 19 19 18 18 18 18 17 17 17 17 16 16 16 16 16 16 15 15 15 15 15 15 15 15 15 14 14 14
23 22 21 21 20 20 20 20 20 20 20 19 19 19 19 19 18 18 18 17 17 17 17 17 17 16 16 16 16 16 15 15 15 15 15 15 15 15 15 15 15 14 14
22 22 21 21 20 20 20 20 20 20 20 19 19 19 19 19 18 18 17 17 17 17 17 17 16 16 16 16 16 16 15 15 15 15 14 15 15 15 15 14 14 14 14
22 21 21 20 20 20 19 19 19 19 19 19 19 19 18 18 18 18 17 17 17 17 17 16 16 16 16 16 16 16 15 15 15 14 14 14 14 14 14 14 14 14 14
21 21 21 20 20 19 19 19 19 19 19 19 19 18 18 18 18 17 17 17 17 16 16 16 16 16 16 16 16 16 15 15 15 14 14 14 14 14 14 13 13 13 13
20 20 20 20 19 19 19 19 18 18 18 18 18 18 18 18 18 18 17 17 16 16 16 16 15 15 15 16 16 15 14 14 14 14 14 14 14 14 14 13 13 13 13
19 19 19 19 19 18 18 18 18 18 18 18 18 18 18 18 18 17 17 17 16 16 16 15 15 15 15 15 15 15 14 14 14 14 14 14 14 14 13 13 13 13 13
18 18 18 18 18 18 18 18 18 18 17 17 17 17 17 17 17 17 16 16 16 16 16 15 15 15 15 15 15 15 14 14 14 13 14 13 13 13 13 13 13 13 13
18 18 18 18 18 18 18 18 18 17 17 17 17 17 17 17 16 16 16 16 16 16 16 16 15 15 15 15 15 15 14 14 13 13 13 13 13 13 13 13 13 12 12
17 17 17 17 17 17 17 17 17 17 17 16 16 16 16 16 16 16 16 15 15 15 15 15 15 15 15 14 14 14 14 14 13 13 13 13 13 13 13 13 12 12 12
16 16 16 16 16 16 16 16 16 16 16 16 16 16 16 16 15 15 15 15 15 15 14 14 14 14 14 14 14 13 13 13 13 13 13 13 13 13 13 12 12 12 12
16 16 16 16 16 16 15 15 15 15 15 15 15 15 16 15 15 15 15 15 14 14 14 14 14 14 14 14 13 13 13 13 13 13 12 13 13 13 13 12 12 12 12
Wind_Speed
9 8 8 7 7 6 6 5 4 4 3 2 2 2 2 1 1 2 2 1 1 2 1 2 1 1 2 2 1 1 1 0 0 0 0 0 0 0 0 1 1 1 1
10 9 9 8 8 8 7 6 6 5 4 3 2 1 1 1 1 1 2 1 1 1 1 1 1 1 1 1 1 1 1 1 1 2 2 1 1 1 0 1 1 1 1
11 11 11 10 9 8 8 6 6 6 5 4 3 3 2 2 2 2 1 1 1 1 1 1 2 2 2 2 2 2 2 2 1 2 3 2 2 1 1 1 1 1 2
11 12 12 11 10 9 8 7 7 7 6 6 5 4 3 2 1 1 1 1 0 1 1 1 1 2 2 2 2 2 2 3 2 1 1 2 2 3 2 2 1 2 2
12 12 12 11 10 10 9 8 8 7 7 6 6 5 4 3 2 2 2 1 0 0 1 1 1 2 2 2 3 3 3 3 3 2 2 1 2 3 3 2 2 2 2
11 11 11 11 10 9 9 8 8 8 8 8 7 6 5 4 3 2 2 2 1 1 0 1 1 2 2 2 2 3 2 3 3 3 2 2 2 2 3 3 3 2 2
10 11 12 12 11 10 9 8 9 8 8 8 8 7 6 5 5 4 3 3 2 1 1 1 1 1 2 2 2 2 2 3 3 3 3 3 2 3 3 3 4 3 3
10 11 11 11 11 11 10 9 8 8 7 7 7 7 6 5 4 4 3 2 2 1 1 1 1 1 2 2 2 2 2 2 3 3 3 3 3 3 3 4 4 4 4
9 10 10 10 10 10 10 9 9 8 7 7 7 6 6 5 4 3 3 2 1 1 1 1 1 1 2 2 2 1 2 2 2 2 2 3 3 4 4 4 4 5 5
8 9 9 9 8 8 9 9 8 7 7 7 6 6 6 6 5 4 3 2 2 2 2 2 2 2 2 2 3 2 1 2 2 3 3 4 3 3 3 4 4 5 5
7 8 8 8 8 8 8 8 8 8 7 7 6 6 6 6 5 5 4 4 3 3 3 3 2 2 2 2 3 4 3 3 3 3 3 4 4 4 4 4 4 4 4
6 7 7 8 7 7 7 8 8 8 7 7 6 6 6 6 6 6 5 4 4 4 3 3 3 3 3 3 3 4 4 4 4 4 4 4 3 4 4 4 4 4 4
5 6 7 7 7 7 6 7 7 7 7 7 7 7 6 6 6 5 5 5 4 4 4 4 4 4 3 3 3 4 5 4 4 4 4 5 5 5 4 5 5 5 5
5 7 7 7 6 6 6 6 7 7 7 6 6 6 6 6 6 5 5 5 5 5 4 4 4 4 4 4 4 4 5 4 4 4 4 5 5 5 5 5 5 5 5
6 7 7 7 6 6 6 5 5 6 6 6 6 5 5 5 5 4 4 4 4 5 4 4 4 4 4 3 4 5 5 4 4 4 5 5 4 5 5 6 5 5 6
5 6 7 7 7 6 6 5 5 5 5 5 5 4 4 4 4 4 4 4 5 4 4 5 5 5 4 0 2 5 5 5 5 5 5 5 4 3 4 5 5 6 6
4 5 6 6 6 6 6 6 6 5 5 5 4 4 4 4 4 4 4 4 4 5 5 5 5 5 3 2 3 5 6 5 5 5 5 5 3 3 4 4 6 6 7
4 5 5 5 6 5 5 5 5 5 5 5 4 4 4 3 3 3 4 4 4 4 5 5 5 5 3 3 4 5 6 6 5 5 5 5 4 4 5 5 5 5 5
3 3 4 5 5 5 5 5 5 5 5 4 4 4 4 3 3 3 3 3 4 4 5 5 5 5 4 3 4 5 6 5 5 5 5 5 5 3 5 5 5 5 5
2 2 3 4 5 5 5 6 5 4 4 4 4 3 4 3 3 3 3 3 3 4 4 4 4 5 5 4 5 6 5 5 5 5 5 4 4 3 4 5 5 6 6
2 2 3 4 5 5 5 5 4 4 3 3 3 3 3 4 4 3 3 3 3 3 4 4 5 5 5 4 6 6 5 5 5 5 5 3 4 4 5 6 5 6 6
2 2 3 3 4 5 5 5 4 3 3 3 2 2 3 3 2 2 3 3 3 4 4 4 4 4 4 4 5 8 8 7 6 5 5 3 5 5 6 5 5 6 7
1 2 2 3 3 4 4 4 3 3 3 3 2 2 2 2 2 2 3 4 4 4 4 4 4 4 3 3 6 8 8 8 6 5 3 3 5 6 6 7 7 7 6
1 2 2 3 3 3 3 3 3 3 3 3 2 2 2 3 2 2 3 3 3 4 4 4 4 4 3 3 2 3 4 6 6 6 4 6 7 7 5 5 5 5 5
2 2 2 2 1 2 2 2 3 3 3 3 2 3 3 2 2 2 3 3 3 3 5 5 4 4 4 2 2 3 4 4 5 5 5 5 4 5 5 5 4 4 5
2 1 1 1 1 1 1 2 2 2 3 3 3 3 3 2 3 3 3 2 3 2 3 4 6 4 3 2 3 4 5 6 5 5 6 6 5 5 5 5 4 4 5
Wind_Direction
179 180 183 182 178 177 178 183 181 171 178 169 166 148 141 135 122 118 96 91 75 73 60 35 43 358 20 0 349 359 54 60 359 267 189 185 162 71 256 260 263 215 224
183 185 188 188 188 186 186 186 187 185 189 174 174 164 154 154 124 103 99 90 87 63 96 26 359 24 22 12 354 327 318 310 291 293 279 257 195 165 186 229 240 279 257
190 187 190 192 192 189 191 193 192 189 195 184 184 172 175 190 166 158 151 150 106 69 18 3 356 344 344 8 331 309 298 302 300 313 303 307 334 312 207 251 267 287 290
194 190 189 192 193 191 190 193 194 193 192 193 202 206 205 191 170 193 129 160 91 22 6 351 343 325 335 335 309 347 303 290 297 297 303 316 316 293 277 241 260 274 270
194 192 190 190 193 190 190 189 190 192 193 198 202 213 217 205 197 195 158 233 181 286 339 328 324 308 312 336 329 326 312 305 306 305 297 285 257 266 281 294 297 273 270
190 190 189 187 190 190 191 189 186 191 194 200 206 216 218 216 220 219 202 226 201 194 131 312 316 301 318 316 312 312 313 319 313 304 298 285 291 287 285 284 280 293 296
186 186 187 187 189 190 191 190 188 192 194 200 206 212 214 216 219 230 220 245 236 202 137 290 294 307 307 297 299 292 317 307 300 294 301 304 297 295 293 289 294 296 279
185 186 187 187 189 188 189 189 190 193 194 203 206 209 211 220 222 221 242 239 253 236 118 220 257 279 283 293 296 289 291 297 296 298 303 298 296 293 287 287 291 289 280
182 184 184 184 186 188 187 188 188 190 192 202 207 206 208 217 217 211 222 231 239 234 218 243 257 263 268 287 279 287 297 295 284 286 273 281 293 289 285 280 281 283 286
180 180 180 179 180 183 183 183 182 182 183 194 203 198 202 207 210 214 214 232 240 251 247 251 261 265 269 277 275 266 276 274 278 292 309 297 293 293 282 277 276 273 278
182 180 178 174 174 176 178 179 180 177 180 189 195 203 203 203 204 211 215 217 226 233 247 253 262 269 272 278 281 288 280 274 280 282 283 286 299 293 285 275 269 269 269
174 172 169 166 167 170 174 177 178 177 181 183 187 194 200 202 207 209 215 218 222 230 239 254 261 266 267 270 274 280 282 275 274 280 285 284 283 277 280 283 277 275 270
167 162 161 161 163 167 171 174 179 181 180 180 186 191 196 203 211 215 218 219 224 232 240 245 253 262 264 265 269 275 280 278 277 277 276 281 285 282 286 279 277 275 270
167 164 162 164 164 166 168 174 182 185 181 185 194 197 202 206 213 217 219 221 225 231 238 243 246 254 257 258 265 266 268 271 272 271 273 278 278 280 281 273 270 275 275
170 169 169 170 171 172 173 175 181 184 184 189 197 200 206 208 216 218 221 220 226 231 234 244 246 250 251 256 261 262 259 264 268 271 273 275 284 302 295 292 291 283 276
179 177 176 175 179 180 179 176 181 183 185 193 196 196 202 205 211 217 223 226 228 234 238 243 248 249 257 204 257 265 262 260 261 266 270 266 255 258 259 281 293 291 278
189 185 185 185 186 186 179 177 181 179 182 188 189 185 189 196 207 223 227 236 237 234 236 241 246 250 246 199 235 259 261 260 263 267 271 276 275 265 269 254 240 253 256
206 193 191 188 186 178 171 171 170 167 167 170 175 180 189 194 203 217 229 237 242 238 238 242 246 249 241 195 224 251 252 259 262 262 266 273 278 282 289 276 274 274 267
221 210 202 189 173 166 160 160 163 166 167 169 175 182 189 196 207 222 235 241 244 245 242 240 245 245 244 207 214 238 250 251 255 257 256 261 267 288 288 271 274 278 273
216 215 200 178 160 158 160 163 165 167 177 182 188 194 196 200 209 218 232 243 247 250 253 249 250 247 250 213 205 230 247 249 251 248 244 237 254 267 270 264 270 275 278
202 190 183 173 164 163 163 168 170 178 188 191 196 208 208 209 213 218 230 243 247 250 254 254 253 249 248 214 197 215 244 252 254 253 248 233 182 220 248 265 272 283 287
171 171 167 163 163 167 168 168 180 187 186 192 203 220 232 235 208 209 228 236 241 242 244 244 249 248 241 228 208 208 231 264 255 258 261 242 177 214 236 253 271 277 276
176 180 170 166 172 177 180 180 187 183 181 191 206 221 226 235 230 228 232 235 236 248 250 250 253 253 249 218 198 205 220 241 254 265 276 255 219 224 233 237 244 250 258
203 198 177 182 187 190 192 187 186 188 194 201 212 222 226 231 225 244 248 252 257 259 260 262 264 262 254 260 243 232 230 230 242 261 239 215 223 237 255 237 234 247 260
230 202 175 168 195 194 200 203 198 200 203 211 228 239 238 238 241 249 274 268 275 280 278 276 277 276 267 279 312 275 258 256 252 255 254 251 241 239 241 246 248 248 247
227 219 198 170 173 213 230 232 225 221 223 227 234 244 246 243 246 245 250 227 253 228 239 265 274 274 297 298 262 266 276 274 260 253 252 254 252 252 253 250 248 249 254
Height
1536 1538 1539 1540 1541 1542 1543 1544 1545 1545 1546 1547 1548 1548 1549 1549 1549 1549 1549 1549 1549 1549 1549 1549 1548 1548 1548 1547 1547 1546 1546 1546 1545 1545 1545 1544 1543 1542 1542 1542 1542 1542 1541
1534 1536 1537 1539 1540 1541 1542 1543 1544 1545 1546 1547 1547 1548 1549 1549 1550 1550 1549 1549 1549 1549 1550 1549 1549 1548 1548 1547 1546 1546 1546 1546 1545 1545 1544 1544 1544 1542 1541 1541 1540 1540 1540
1530 1533 1535 1537 1539 1540 1541 1543 1543 1544 1545 1546 1548 1548 1548 1549 1550 1550 1550 1550 1550 1550 1549 1549 1549 1548 1548 1547 1546 1546 1545 1545 1545 1544 1544 1543 1542 1542 1541 1540 1539 1539 1538
1527 1530 1532 1534 1536 1538 1539 1541 1542 1543 1544 1545 1547 1548 1549 1549 1550 1550 1550 1550 1550 1549 1549 1549 1548 1548 1548 1547 1546 1546 1545 1544 1544 1543 1542 1542 1541 1541 1540 1540 1539 1538 1537
1524 1527 1530 1532 1535 1536 1538 1539 1540 1542 1543 1544 1545 1546 1548 1549 1549 1549 1549 1549 1549 1549 1549 1548 1547 1547 1547 1546 1545 1544 1544 1544 1543 1543 1542 1541 1540 1540 1539 1538 1538 1537 1536
1521 1525 1528 1530 1532 1534 1536 1537 1538 1540 1541 1543 1544 1545 1546 1547 1548 1548 1549 1549 1549 1548 1548 1547 1546 1546 1545 1545 1544 1543 1543 1542 1541 1541 1541 1540 1540 1539 1538 1537 1536 1535 1535
1519 1522 1525 1527 1530 1532 1534 1535 1536 1538 1539 1541 1542 1543 1544 1545 1546 1547 1548 1548 1548 1548 1547 1547 1545 1545 1544 1543 1542 1542 1541 1540 1539 1539 1539 1539 1538 1537 1537 1536 1535 1534 1533
1517 1520 1522 1525 1527 1529 1531 1533 1534 1536 1537 1539 1540 1541 1543 1544 1545 1545 1546 1547 1547 1547 1545 1545 1544 1543 1543 1542 1541 1541 1540 1539 1538 1538 1537 1537 1537 1536 1535 1535 1534 1533 1532
1515 1518 1521 1523 1525 1527 1529 1530 1532 1534 1535 1537 1538 1539 1540 1542 1543 1543 1544 1545 1545 1545 1544 1544 1543 1542 1542 1541 1540 1539 1538 1538 1537 1537 1536 1535 1535 1534 1533 1532 1532 1532 1530
1514 1516 1519 1521 1523 1525 1527 1528 1530 1531 1533 1535 1536 1538 1538 1539 1540 1541 1542 1542 1543 1543 1543 1542 1542 1541 1540 1539 1538 1538 1537 1536 1535 1535 1534 1533 1533 1532 1531 1530 1530 1529 1529
1512 1514 1517 1519 1521 1523 1525 1526 1528 1529 1531 1533 1534 1536 1537 1537 1538 1539 1540 1540 1540 1541 1541 1540 1540 1539 1539 1538 1537 1537 1536 1535 1534 1533 1532 1531 1530 1530 1529 1528 1527 1527 1526
1511 1514 1516 1518 1520 1521 1523 1525 1526 1528 1529 1531 1532 1534 1535 1536 1536 1537 1538 1538 1538 1538 1538 1538 1537 1537 1536 1536 1535 1534 1534 1533 1532 1531 1530 1529 1528 1527 1526 1526 1525 1524 1523
1511 1513 1515 1517 1518 1520 1521 1523 1524 1526 1528 1529 1530 1531 1532 1533 1534 1535 1535 1536 1536 1536 1536 1535 1535 1534 1534 1533 1533 1532 1531 1531 1530 1529 1528 1527 1526 1525 1524 1523 1523 1522 1521
1510 1512 1514 1515 1517 1519 1520 1521 1523 1524 1526 1527 1529 1530 1530 1531 1532 1532 1533 1533 1533 1533 1533 1533 1532 1532 1531 1531 1530 1530 1529 1528 1527 1526 1525 1525 1523 1522 1521 1521 1519 1519 1518
1509 1511 1512 1514 1515 1517 1518 1519 1521 1523 1524 1525 1526 1527 1528 1529 1529 1530 1530 1530 1530 1530 1530 1530 1530 1529 1529 1528 1528 1527 1526 1525 1524 1523 1522 1522 1520 1519 1518 1518 1517 1516 1515
1508 1510 1511 1512 1514 1515 1516 1517 1519 1521 1522 1523 1524 1525 1526 1526 1527 1527 1527 1527 1527 1527 1527 1527 1527 1526 1526 1525 1524 1523 1523 1522 1521 1520 1519 1519 1518 1516 1515 1514 1513 1512 1512
1507 1508 1509 1511 1512 1513 1514 1515 1517 1518 1520 1521 1522 1522 1523 1524 1524 1525 1525 1525 1525 1524 1524 1524 1523 1523 1522 1521 1521 1520 1519 1519 1518 1518 1517 1517 1515 1514 1512 1511 1509 1509 1508
1506 1507 1508 1509 1510 1512 1512 1513 1515 1516 1517 1518 1519 1520 1520 1521 1521 1522 1522 1522 1521 1521 1521 1520 1520 1519 1518 1518 1517 1516 1516 1515 1515 1514 1513 1513 1511 1511 1509 1508 1507 1506 1505
1505 1506 1507 1508 1508 1509 1510 1512 1513 1514 1515 1515 1516 1517 1518 1518 1518 1518 1518 1518 1518 1518 1517 1517 1516 1516 1515 1514 1513 1512 1512 1512 1511 1511 1510 1509 1508 1507 1506 1505 1504 1502 1501
1503 1504 1505 1506 1506 1507 1509 1510 1511 1512 1512 1513 1514 1515 1515 1515 1515 1515 1515 1515 1515 1514 1514 1514 1513 1512 1511 1510 1510 1509 1509 1508 1508 1507 1507 1505 1505 1504 1503 1502 1501 1499 1498
1501 1502 1503 1504 1504 1505 1506 1507 1509 1509 1510 1511 1512 1512 1512 1512 1512 1512 1512 1512 1511 1511 1511 1510 1509 1508 1507 1507 1506 1506 1505 1505 1505 1505 1504 1503 1501 1500 1499 1498 1498 1496 1496
1500 1500 1501 1501 1502 1503 1504 1505 1506 1507 1508 1509 1509 1510 1510 1510 1509 1508 1508 1508 1508 1508 1507 1507 1506 1505 1504 1504 1503 1502 1502 1501 1501 1501 1501 1500 1498 1497 1496 1495 1494 1493 1493
1499 1499 1499 1500 1501 1501 1502 1503 1504 1504 1505 1506 1506 1506 1506 1506 1506 1505 1505 1505 1505 1505 1505 1504 1503 1503 1502 1501 1500 1499 1499 1498 1498 1498 1497 1496 1495 1494 1493 1492 1491 1490 1490
1497 1497 1497 1498 1498 1499 1500 1500 1501 1502 1503 1503 1503 1503 1503 1503 1503 1502 1502 1502 1502 1502 1501 1501 1500 1500 1499 1498 1497 1496 1495 1495 1494 1494 1493 1492 1492 1491 1490 1489 1488 1488 1487
1496 1495 1495 1495 1496 1496 1497 1498 1499 1499 1500 1500 1500 1500 1500 1500 1499 1498 1498 1498 1498 1498 1498 1497 1497 1496 1495 1494 1493 1492 1492 1491 1491 1490 1490 1490 1489 1488 1487 1486 1486 1485 1484
1494 1494 1494 1493 1493 1494 1495 1496 1496 1497 1497 1497 1497 1497 1497 1496 1496 1495 1495 1494 1494 1493 1493 1492 1492 1491 1490 1489 1489 1488 1488 1488 1487 1487 1487 1487 1486 1485 1484 1484 1483 1482 1481